Temperature
23 23 22 22 20 19 21 22 24 24 25 26 26 25 24 23 23 21 22 22 22 22 22 22 21 21 21 21 21 21 21 20 20 20 20 20 20 20 19 19 19 19 19 19 19 19 18 18 18
23 23 22 21 19 20 21 23 24 24 25 25 25 25 24 23 22 22 22 22 22 22 22 22 21 21 21 21 21 21 20 20 20 20 20 20 19 19 19 19 19 19 19 19 19 19 18 18 18
23 22 22 19 20 20 22 23 24 25 26 26 25 24 23 23 22 22 22 22 22 22 22 22 21 21 21 21 21 20 20 20 20 20 20 19 19 19 19 19 19 19 19 18 18 18 18 18 18
23 22 22 19 21 22 23 24 24 25 25 25 25 23 22 22 23 23 22 22 22 22 22 21 21 21 21 21 20 20 20 20 20 20 19 19 19 19 19 19 19 18 18 18 18 18 18 18 18
23 22 20 20 22 23 24 24 24 25 25 25 24 23 22 22 22 22 22 22 22 22 21 21 21 21 21 20 20 20 20 20 19 19 19 19 19 19 18 18 18 18 18 18 18 18 18 18 18
23 20 19 20 22 24 24 25 24 24 24 24 24 23 22 22 22 22 22 22 22 21 21 21 20 20 20 20 20 20 20 19 19 19 19 19 18 18 18 18 18 18 18 18 18 18 18 18 18
22 20 20 22 22 23 25 25 24 24 23 24 24 22 21 21 22 22 21 21 21 21 21 20 20 20 20 20 20 19 19 19 19 19 19 18 18 18 18 18 18 18 18 17 17 17 17 17 17
24 20 22 22 23 23 24 25 25 24 23 23 23 22 21 21 21 21 21 21 21 20 20 20 20 20 19 19 19 19 19 19 18 18 18 18 18 18 17 17 17 17 17 17 17 17 17 17 17
25 20 21 22 23 23 24 24 24 24 24 23 23 22 22 21 21 21 20 20 20 19 19 19 19 19 19 19 19 18 18 18 18 18 18 18 18 17 17 17 17 17 17 17 17 17 17 17 17
24 20 22 24 24 24 24 24 24 24 23 22 22 22 22 21 21 21 20 20 19 19 19 19 19 19 19 18 18 18 18 18 18 18 18 17 17 17 17 17 17 17 17 16 16 16 16 16 16
23 22 24 25 25 25 24 24 25 23 22 22 22 21 21 21 21 20 20 20 20 19 19 19 19 18 18 18 18 18 18 18 17 17 17 17 17 17 17 17 17 16 16 16 16 16 16 16 16
24 24 25 25 26 25 24 24 24 24 23 23 22 22 21 21 21 20 20 20 19 19 19 19 18 18 18 18 17 17 17 17 17 17 17 17 17 17 16 16 16 16 16 16 16 16 16 16 16
24 24 26 25 25 25 24 24 23 23 22 22 21 21 21 20 20 20 20 19 19 19 19 18 18 18 18 18 17 17 17 17 17 17 16 16 16 16 16 16 16 16 16 16 16 16 16 16 16
24 24 25 25 25 25 24 23 23 22 22 21 20 20 20 20 20 19 19 19 19 18 18 18 18 18 18 17 17 17 17 17 16 16 16 16 16 16 16 16 16 16 15 15 15 15 15 15 15
25 24 24 24 24 24 23 22 22 22 21 20 20 20 19 19 19 19 19 19 18 18 18 18 17 17 17 17 17 17 17 16 16 16 16 16 16 15 15 15 15 15 15 15 15 15 15 15 15
23 22 22 23 24 24 23 21 21 21 21 20 19 19 19 19 19 19 19 19 18 18 18 17 17 17 17 17 17 16 16 16 16 16 16 15 15 15 15 15 15 15 15 15 15 15 15 15 15
21 21 22 23 24 23 22 21 21 21 20 19 19 19 18 18 18 18 18 18 18 18 17 17 17 17 16 16 16 16 16 16 16 16 15 15 15 15 15 15 15 14 14 14 14 14 14 14 15
21 22 23 22 23 23 21 20 20 20 20 19 18 18 18 18 18 18 18 18 18 18 17 17 17 16 16 16 16 16 16 15 15 15 15 15 15 14 14 14 14 14 14 14 14 14 14 14 14
23 23 22 23 23 22 21 20 19 19 19 18 18 18 18 18 18 18 17 17 18 17 17 17 16 16 16 15 15 15 15 15 15 15 15 15 14 14 14 14 14 14 14 14 14 14 14 14 14
23 22 22 22 23 22 20 20 19 19 19 18 18 18 18 18 17 17 17 17 17 17 16 16 16 16 15 15 15 15 15 15 14 14 14 14 14 14 14 14 14 14 14 13 13 13 13 13 13
23 22 22 22 22 22 21 19 19 19 19 18 18 18 18 17 17 17 17 16 16 16 16 16 16 15 15 15 15 15 14 14 14 14 14 14 14 14 14 14 14 14 13 13 13 13 13 13 13
23 23 23 23 21 19 20 18 18 18 18 18 18 17 17 17 17 17 16 16 16 16 15 15 15 15 15 14 14 14 14 14 14 14 14 14 14 14 14 13 13 13 13 13 13 13 13 13 13
24 23 23 22 20 19 19 18 17 17 17 17 17 17 17 17 17 16 16 16 16 15 15 15 15 15 15 14 14 14 14 14 14 13 13 13 13 13 13 13 13 13 13 13 13 13 13 13 13
24 22 21 19 18 18 18 18 17 16 17 17 17 17 17 17 16 16 16 16 15 15 15 15 15 14 14 14 14 14 13 13 13 13 13 13 13 13 13 13 13 13 13 13 13 13 13 13 12
22 19 18 18 17 17 18 17 16 17 17 17 17 17 17 16 16 16 16 15 15 15 15 15 14 14 14 14 14 13 13 13 13 13 13 13 13 13 13 13 13 13 13 13 13 13 13 12 12
22 19 18 18 18 17 18 17 17 17 17 17 17 17 16 16 16 16 15 15 15 15 15 14 14 14 14 14 13 13 13 13 13 13 13 13 12 12 12 12 12 13 12 12 13 12 12 12 12
22 19 19 17 18 17 17 17 17 17 17 17 17 16 16 16 16 15 15 15 15 15 15 14 14 14 14 13 13 13 13 13 13 13 12 12 12 12 12 12 12 12 12 12 12 12 12 12 12
21 20 17 17 17 17 17 17 16 16 16 16 15 16 16 16 16 15 15 15 15 15 14 14 14 14 13 13 13 13 13 13 12 12 12 12 12 12 12 12 12 12 12 12 12 12 12 12 12
21 20 17 16 16 16 16 16 17 16 15 15 15 16 16 16 15 15 15 15 15 15 14 14 14 14 13 13 13 13 13 12 12 12 12 12 12 12 12 12 12 12 12 12 12 12 12 12 11
21 19 17 17 17 16 15 15 17 16 16 16 16 16 16 16 15 15 15 15 15 14 14 14 14 14 13 13 13 13 13 13 13 12 12 12 12 12 12 12 12 12 12 12 12 12 12 11 11
Wind_Speed
2 2 1 3 5 4 1 2 1 3 3 4 7 9 9 6 4 4 3 11 14 13 12 15 16 15 15 14 13 13 12 12 11 11 11 11 11 11 11 11 11 10 10 9 8 7 6 6 5
1 1 3 4 5 2 3 1 2 2 3 5 7 9 9 6 5 7 6 11 15 13 12 13 16 15 15 14 13 13 12 11 11 10 10 10 10 10 10 10 9 9 8 8 7 7 6 6 5
2 1 3 4 2 3 3 1 2 2 4 5 5 6 5 4 4 5 8 14 13 11 11 13 16 15 15 14 14 13 12 11 11 10 9 9 8 8 8 8 8 8 7 7 7 7 6 6 6
1 3 4 3 2 4 3 3 1 2 4 4 6 6 4 3 3 7 13 15 14 11 11 14 16 15 14 14 13 13 12 11 10 9 9 8 8 8 7 7 7 7 7 7 7 7 7 7 7
3 4 3 2 4 2 0 1 1 3 3 3 7 6 4 3 8 13 14 13 13 10 8 12 16 15 14 14 13 12 11 10 9 9 9 8 8 8 7 7 6 6 7 7 7 7 7 7 8
3 4 3 1 3 2 2 1 3 5 6 4 6 6 3 3 8 12 13 12 12 11 8 10 13 14 13 13 13 12 10 9 9 8 8 8 7 7 7 7 6 6 6 6 6 7 8 9 9
4 3 2 3 2 2 1 1 3 5 5 2 4 6 3 2 6 10 11 11 9 9 8 6 8 9 11 11 11 10 9 9 8 8 7 8 8 7 7 6 6 6 6 7 7 8 8 9 9
5 3 1 2 2 1 2 1 2 3 4 3 3 6 5 4 8 12 11 10 8 7 6 5 5 5 6 7 8 8 8 8 8 7 7 7 7 7 6 6 6 6 7 7 8 8 8 9 10
4 3 3 4 3 2 1 1 2 3 6 4 3 4 7 9 12 13 11 9 7 7 4 4 4 3 4 4 6 7 7 7 7 6 6 5 5 5 5 5 6 7 7 7 8 8 8 8 10
4 3 7 6 5 4 2 2 2 4 6 5 6 6 8 11 13 13 11 9 7 6 4 3 4 3 3 3 3 5 6 5 5 4 4 4 4 4 4 5 6 7 8 8 8 7 8 7 6
4 6 6 4 4 4 3 1 1 6 3 5 8 8 9 10 11 11 9 8 8 7 5 4 4 3 2 1 2 2 3 4 4 4 4 4 3 3 2 2 4 5 6 5 6 6 5 4 4
3 6 5 4 3 3 3 3 3 4 4 7 10 11 11 11 9 9 9 7 6 5 4 4 4 4 3 2 1 2 2 3 3 4 4 3 2 1 2 2 2 3 3 3 3 3 4 4 5
3 4 3 1 0 3 4 5 5 7 10 10 11 12 11 10 8 7 8 8 6 5 3 4 4 4 3 2 1 1 1 2 3 3 4 4 3 2 2 2 2 2 3 3 3 3 3 3 4
4 3 3 1 1 2 6 4 6 6 10 11 11 10 9 9 9 7 7 6 5 4 4 3 3 3 3 2 1 2 2 2 2 2 2 3 2 2 2 2 2 2 3 3 3 3 3 3 3
2 3 5 2 1 2 6 5 4 7 10 11 10 10 9 7 7 7 6 6 5 4 3 2 3 2 2 2 2 2 2 2 2 2 3 3 2 1 2 2 2 2 3 2 2 2 2 3 3
4 4 3 5 1 2 7 3 2 7 11 10 9 8 7 6 6 6 6 6 5 4 4 3 3 2 1 1 1 1 1 2 2 2 2 2 2 2 2 1 2 2 1 1 2 1 2 2 2
4 2 4 5 2 2 5 3 2 7 11 9 8 7 5 5 4 4 5 6 5 5 4 3 3 2 1 1 0 0 1 1 2 2 1 1 1 2 2 2 2 1 0 1 2 1 1 2 2
4 3 3 3 2 4 5 4 4 5 10 9 7 6 4 4 2 3 3 4 5 5 4 3 3 2 2 1 1 1 1 0 1 1 2 1 1 1 1 1 1 1 0 1 1 1 1 1 2
2 1 2 3 0 3 5 5 5 5 7 7 7 5 3 3 1 2 2 3 4 4 4 2 2 1 1 1 1 1 1 1 1 1 1 1 1 1 1 1 1 1 1 2 1 1 1 1 1
1 0 2 3 1 2 6 5 3 5 6 7 6 5 3 2 2 3 3 3 3 3 2 2 2 1 1 1 1 1 1 1 1 1 1 1 1 1 1 2 1 1 1 1 0 0 0 1 0
1 2 4 3 3 3 6 4 3 3 4 5 4 4 4 3 3 3 2 2 3 2 1 1 1 1 1 1 1 1 2 2 2 2 1 1 1 2 2 2 1 1 1 1 2 1 1 1 2
2 4 3 2 1 2 3 2 2 1 3 3 2 1 1 1 3 3 2 2 1 1 1 1 2 2 1 1 1 1 1 1 2 2 2 2 2 1 1 1 1 1 1 2 2 1 2 2 2
3 2 1 1 2 2 3 4 2 2 2 1 0 0 1 2 3 2 2 1 1 1 1 1 1 2 2 1 0 1 0 1 1 1 2 2 2 2 2 2 2 2 2 2 2 2 2 2 3
2 6 6 6 5 3 3 3 1 1 1 0 1 2 1 2 2 2 1 1 1 1 1 1 2 2 2 2 1 1 1 1 1 2 2 3 2 2 2 2 2 2 2 3 3 3 3 3 3
7 7 5 7 5 1 2 3 1 2 1 3 2 1 1 1 2 1 1 1 1 1 1 2 2 3 3 2 1 1 1 2 2 2 2 2 2 2 4 3 2 2 3 3 3 2 3 3 3
1 7 5 2 2 2 3 1 2 0 1 2 2 2 2 2 2 1 1 1 1 0 0 1 2 2 2 2 2 1 1 1 1 2 2 2 3 3 4 3 3 3 3 2 2 2 2 2 3
2 1 5 6 2 1 1 0 1 1 3 3 3 4 3 2 1 1 0 1 1 1 1 1 1 2 2 2 1 1 1 1 1 2 2 2 3 3 3 2 2 2 2 2 1 1 2 2 3
4 4 6 4 3 0 1 2 3 2 1 2 2 2 2 2 1 1 1 1 1 1 1 1 1 1 2 1 1 1 1 1 1 2 2 3 3 3 2 3 2 2 2 1 1 2 2 2 3
3 4 4 4 4 4 2 4 3 5 3 1 0 0 1 1 1 1 1 1 1 1 0 1 1 1 2 1 1 1 1 2 2 2 3 3 3 2 2 2 2 2 2 2 1 2 3 3 3
4 3 4 3 1 3 3 4 2 4 3 3 2 0 0 1 1 1 1 2 2 2 1 1 1 1 1 1 1 1 2 2 2 2 3 2 2 2 2 2 1 1 1 1 1 2 2 2 2
Wind_Direction
251 233 107 61 51 45 331 274 128 27 28 63 81 91 93 85 111 140 152 149 144 149 152 150 147 143 140 137 134 131 129 126 126 127 128 128 129 131 133 136 140 145 149 152 156 161 164 166 170
240 174 60 55 72 40 292 250 86 83 121 101 77 80 79 74 92 118 127 144 144 147 149 151 150 148 146 143 140 138 137 135 132 131 132 133 134 137 140 143 147 151 156 162 169 175 179 183 189
253 132 86 73 116 184 245 193 119 66 85 81 72 60 69 96 113 138 148 142 140 144 147 152 153 152 151 149 148 145 144 143 140 138 137 139 142 144 147 152 158 162 168 175 182 188 193 199 204
80 53 53 69 253 232 206 241 49 77 47 53 99 74 61 67 130 134 136 140 140 144 147 154 155 154 153 152 151 148 148 148 146 146 147 147 149 151 153 159 167 175 183 190 194 200 203 209 213
71 78 53 338 286 288 284 187 64 99 106 70 95 95 71 32 104 124 132 139 140 142 146 156 157 154 153 153 153 152 152 152 153 155 156 156 158 162 165 170 179 187 194 201 207 212 215 219 223
58 73 75 279 293 311 351 55 77 84 105 107 106 110 100 100 113 131 133 136 138 139 140 148 155 155 155 156 157 157 157 157 159 163 165 167 168 169 174 181 189 196 200 207 217 223 226 227 231
127 112 186 209 254 299 300 11 77 99 113 109 126 110 112 89 124 129 125 118 122 131 137 139 150 156 161 161 158 157 159 158 162 168 169 171 177 180 184 193 198 208 213 217 225 236 240 239 237
158 110 284 238 206 246 257 16 76 90 112 104 108 124 148 161 123 114 108 102 105 115 123 134 135 137 155 162 163 166 166 167 167 170 172 178 184 188 196 200 208 217 224 230 231 239 245 247 245
131 85 247 228 196 212 204 103 15 62 91 76 75 110 141 131 114 109 102 97 101 102 104 117 111 114 139 162 175 177 172 172 173 182 183 182 187 196 204 207 219 224 233 241 242 247 251 252 253
124 173 236 226 190 183 174 130 145 89 78 75 79 91 113 114 112 114 114 113 115 124 132 120 121 127 127 157 164 170 172 172 179 183 182 179 179 194 210 226 238 241 245 249 250 245 250 253 252
182 206 240 245 206 161 142 154 132 125 114 151 141 128 114 104 104 111 117 128 138 144 143 136 133 123 121 137 145 156 164 171 183 185 179 176 174 197 219 228 250 255 253 254 258 256 252 251 246
232 250 232 232 222 163 159 155 91 113 152 135 127 128 115 107 113 121 125 125 129 132 141 136 140 136 137 135 174 161 169 180 190 202 195 179 190 213 227 226 239 237 242 248 257 255 254 256 249
262 260 266 241 15 137 117 122 108 103 110 108 111 114 116 116 112 112 121 123 120 125 141 146 147 144 144 131 184 160 188 190 194 189 194 188 195 213 222 229 243 247 244 242 254 258 257 251 251
260 278 288 278 212 162 128 125 104 124 123 113 110 108 113 117 117 103 104 116 123 141 149 139 137 144 137 143 173 191 191 180 164 160 177 185 186 205 217 231 238 252 253 243 231 236 242 247 250
286 334 328 292 105 134 96 63 123 152 127 119 114 110 106 101 103 110 120 129 136 146 138 118 120 125 137 156 187 180 178 160 169 179 185 179 175 186 200 221 238 251 250 246 236 258 250 259 264
359 16 324 289 128 143 102 134 151 143 121 115 112 108 104 100 102 106 108 112 119 113 107 100 86 77 86 137 199 204 168 156 177 177 179 187 185 173 178 221 248 251 235 248 246 260 269 268 265
5 328 297 303 293 89 106 146 161 143 121 116 114 111 108 94 90 107 115 116 113 109 102 88 69 61 38 354 283 182 170 185 185 171 174 188 202 184 164 214 243 249 230 262 267 262 242 262 276
271 292 307 291 306 84 104 129 121 131 117 118 112 100 94 95 108 142 124 110 108 101 93 85 71 48 36 12 9 15 18 328 210 186 187 195 213 198 157 216 246 249 232 269 272 269 291 260 266
216 286 302 278 148 81 113 123 125 122 107 113 111 106 105 103 97 89 90 92 92 88 85 70 61 13 36 35 45 6 310 316 321 250 207 196 201 191 196 252 271 228 225 242 267 264 297 306 326
156 316 292 303 336 102 109 97 109 122 133 132 129 125 119 73 48 58 55 62 78 78 72 43 37 26 358 274 203 230 231 256 260 278 308 257 213 212 211 217 230 234 235 265 268 187 349 321 35
136 200 231 253 351 71 105 46 42 77 100 112 121 143 147 141 137 103 60 42 69 73 68 35 351 345 314 332 39 17 23 12 3 332 316 299 256 222 211 213 215 224 194 236 248 198 164 263 283
262 252 234 222 106 264 136 146 321 90 77 89 107 129 138 148 130 114 84 58 99 125 70 39 344 328 327 356 105 101 67 301 273 269 281 296 281 254 223 214 207 210 206 226 244 220 210 204 257
243 269 286 199 138 70 33 112 299 44 54 22 204 180 146 168 143 132 130 141 157 112 86 21 354 328 321 335 163 130 260 256 268 294 316 310 298 281 246 219 219 229 231 237 246 248 230 209 217
42 25 27 44 69 47 324 124 303 310 239 297 47 62 105 134 127 123 113 104 81 84 42 8 1 328 329 335 320 188 232 257 290 306 313 309 306 301 279 238 228 232 232 237 237 239 230 225 227
49 62 26 11 24 311 334 86 259 274 136 138 134 82 88 110 92 88 67 43 81 81 35 359 353 329 324 330 316 253 225 216 217 252 272 286 292 285 272 260 247 246 239 236 235 237 245 237 235
63 118 140 184 215 258 352 96 249 242 128 102 109 113 86 83 91 139 202 203 182 192 328 335 336 319 315 318 304 288 220 201 236 249 248 261 257 259 261 258 252 249 244 244 248 258 256 253 247
87 79 159 138 101 75 337 57 281 12 33 60 61 67 71 86 115 146 238 233 224 252 266 263 284 310 315 312 302 308 275 247 272 284 280 271 268 264 264 261 258 264 259 242 231 251 270 267 258
107 122 79 91 111 140 267 233 227 250 307 9 25 54 26 34 58 35 342 293 261 256 259 280 254 276 293 305 300 336 283 274 275 295 298 292 282 274 272 276 277 273 279 279 251 272 269 269 269
31 48 86 100 131 145 217 268 224 195 199 198 262 79 48 35 31 39 336 323 334 334 25 358 329 324 317 316 313 322 292 285 291 293 287 286 290 290 277 265 261 258 271 276 257 260 267 266 275
113 115 115 121 176 144 158 263 256 172 177 158 157 62 25 21 33 33 356 4 13 5 355 314 293 304 293 313 342 320 311 332 333 316 303 300 304 305 292 286 280 274 306 289 256 276 285 263 269
Height
1506 1506 1506 1507 1510 1519 1520 1509 1498 1495 1493 1492 1490 1491 1494 1499 1503 1511 1507 1506 1508 1509 1510 1512 1514 1515 1516 1516 1517 1518 1518 1519 1520 1521 1521 1522 1523 1523 1524 1525 1526 1526 1527 1528 1529 1530 1531 1532 1532
1506 1506 1508 1508 1517 1529 1521 1504 1498 1495 1494 1492 1492 1493 1495 1499 1501 1503 1504 1506 1508 1509 1510 1512 1513 1515 1516 1516 1517 1518 1518 1519 1520 1520 1521 1522 1522 1523 1524 1524 1525 1526 1526 1527 1528 1529 1529 1530 1531
1506 1507 1509 1511 1520 1525 1515 1501 1496 1493 1493 1492 1494 1495 1498 1501 1502 1503 1504 1506 1508 1509 1511 1512 1513 1514 1515 1516 1517 1517 1518 1518 1519 1520 1521 1521 1522 1522 1523 1523 1524 1524 1525 1526 1526 1527 1527 1528 1529
1506 1508 1509 1516 1518 1509 1503 1498 1494 1493 1494 1493 1494 1498 1501 1502 1502 1503 1504 1506 1507 1509 1510 1512 1513 1514 1515 1516 1516 1517 1517 1518 1518 1519 1520 1520 1521 1521 1522 1522 1523 1523 1523 1524 1524 1525 1525 1526 1527
1506 1508 1514 1521 1514 1503 1497 1495 1494 1493 1495 1495 1495 1500 1502 1504 1503 1503 1504 1506 1508 1509 1510 1512 1513 1514 1515 1515 1516 1517 1517 1517 1518 1518 1519 1519 1520 1520 1520 1520 1521 1521 1521 1522 1522 1523 1523 1524 1524
1507 1508 1522 1525 1513 1501 1496 1494 1493 1494 1495 1496 1497 1499 1503 1504 1504 1504 1505 1506 1508 1509 1510 1512 1513 1514 1515 1515 1515 1516 1516 1516 1517 1517 1518 1518 1518 1519 1519 1519 1519 1519 1519 1519 1520 1520 1521 1521 1522
1507 1511 1518 1515 1511 1504 1497 1494 1494 1494 1495 1496 1496 1499 1503 1504 1504 1505 1506 1507 1508 1509 1510 1511 1513 1513 1514 1515 1515 1515 1516 1516 1516 1516 1517 1517 1517 1517 1517 1517 1517 1517 1517 1517 1517 1518 1518 1519 1519
1504 1508 1512 1512 1509 1504 1496 1494 1494 1494 1496 1496 1497 1499 1502 1504 1505 1505 1506 1507 1509 1509 1510 1511 1512 1513 1514 1514 1514 1515 1515 1515 1515 1515 1515 1515 1515 1515 1515 1515 1515 1515 1515 1515 1515 1515 1516 1516 1516
1503 1511 1515 1508 1505 1500 1494 1494 1495 1495 1495 1496 1497 1498 1501 1503 1504 1505 1506 1508 1509 1509 1511 1512 1512 1512 1513 1513 1513 1513 1513 1513 1514 1514 1514 1514 1514 1513 1513 1513 1513 1513 1513 1513 1513 1513 1513 1513 1514
1501 1512 1505 1496 1494 1494 1493 1493 1494 1495 1495 1497 1498 1499 1501 1502 1503 1504 1506 1507 1508 1509 1510 1511 1510 1511 1511 1511 1511 1511 1511 1512 1512 1512 1512 1512 1512 1511 1511 1511 1511 1511 1511 1510 1510 1510 1510 1510 1510
1497 1500 1493 1491 1490 1490 1491 1492 1492 1493 1497 1497 1497 1499 1501 1502 1504 1505 1506 1507 1508 1509 1509 1509 1509 1510 1510 1510 1510 1509 1509 1510 1510 1510 1510 1509 1509 1509 1509 1509 1508 1508 1508 1508 1507 1507 1507 1507 1507
1495 1491 1490 1489 1489 1489 1490 1491 1492 1492 1496 1497 1497 1498 1500 1501 1503 1504 1505 1506 1507 1508 1508 1508 1508 1509 1508 1508 1508 1507 1507 1508 1507 1508 1508 1507 1507 1506 1506 1506 1506 1506 1505 1505 1504 1504 1504 1504 1504
1491 1489 1487 1487 1488 1488 1488 1490 1492 1495 1496 1497 1498 1498 1499 1501 1502 1503 1505 1506 1506 1507 1507 1507 1507 1507 1506 1506 1506 1506 1505 1505 1505 1505 1505 1504 1504 1504 1503 1503 1503 1503 1502 1502 1501 1501 1501 1501 1501
1489 1487 1487 1487 1486 1487 1488 1491 1493 1498 1497 1497 1498 1499 1501 1501 1501 1503 1504 1504 1505 1505 1506 1506 1505 1505 1505 1504 1504 1503 1503 1503 1503 1503 1502 1502 1501 1501 1501 1500 1500 1500 1499 1499 1498 1498 1498 1498 1498
1488 1489 1488 1486 1485 1487 1488 1495 1495 1496 1496 1497 1499 1501 1501 1503 1503 1503 1503 1503 1504 1504 1504 1505 1504 1504 1504 1503 1502 1502 1501 1501 1501 1501 1500 1499 1499 1498 1498 1498 1497 1497 1496 1496 1496 1496 1495 1495 1494
1490 1495 1498 1488 1485 1486 1492 1503 1497 1496 1496 1498 1500 1501 1502 1503 1503 1503 1503 1503 1503 1503 1503 1503 1503 1503 1502 1501 1500 1500 1500 1499 1499 1498 1497 1497 1496 1496 1496 1495 1495 1495 1494 1493 1493 1492 1491 1491 1491
1500 1506 1502 1493 1485 1486 1492 1501 1497 1496 1496 1499 1501 1503 1503 1503 1504 1503 1503 1502 1502 1503 1502 1502 1501 1500 1500 1500 1499 1498 1497 1497 1496 1496 1495 1494 1494 1494 1493 1493 1493 1493 1492 1491 1491 1490 1489 1488 1488
1508 1504 1500 1497 1488 1488 1494 1499 1498 1497 1497 1500 1502 1503 1504 1504 1504 1504 1503 1502 1502 1502 1502 1501 1500 1499 1498 1497 1497 1496 1495 1495 1494 1493 1493 1493 1492 1492 1492 1491 1491 1490 1489 1489 1488 1487 1487 1486 1485
1495 1498 1499 1493 1487 1491 1497 1500 1500 1499 1500 1501 1503 1504 1505 1504 1505 1504 1504 1502 1501 1501 1500 1500 1499 1498 1497 1495 1494 1493 1493 1492 1492 1491 1491 1491 1490 1490 1490 1489 1488 1488 1487 1486 1486 1485 1484 1483 1483
1491 1497 1498 1493 1487 1492 1499 1502 1501 1501 1502 1502 1503 1505 1505 1505 1504 1503 1503 1502 1501 1500 1500 1499 1498 1497 1496 1494 1493 1492 1491 1491 1490 1490 1489 1489 1488 1488 1487 1486 1486 1486 1485 1484 1483 1483 1482 1481 1481
1491 1494 1495 1495 1491 1492 1499 1510 1506 1504 1504 1504 1505 1504 1503 1503 1503 1502 1502 1502 1501 1500 1499 1498 1497 1496 1494 1492 1491 1490 1490 1489 1488 1488 1487 1487 1486 1486 1485 1485 1484 1483 1483 1481 1481 1481 1480 1479 1479
1494 1485 1485 1488 1499 1508 1502 1522 1513 1508 1506 1505 1505 1505 1504 1503 1502 1501 1501 1501 1500 1500 1499 1498 1496 1494 1493 1491 1489 1488 1487 1486 1486 1486 1485 1484 1484 1483 1483 1482 1482 1481 1481 1480 1480 1479 1478 1477 1477
1484 1479 1482 1486 1496 1508 1508 1519 1519 1509 1510 1508 1506 1505 1504 1503 1501 1501 1500 1500 1500 1499 1498 1497 1495 1494 1492 1490 1488 1487 1486 1485 1485 1484 1483 1482 1482 1481 1481 1480 1480 1479 1478 1478 1477 1476 1476 1475 1475
1479 1483 1487 1494 1504 1521 1515 1519 1523 1515 1511 1508 1506 1504 1503 1502 1501 1501 1500 1499 1499 1498 1497 1495 1494 1492 1490 1489 1487 1485 1484 1483 1483 1482 1481 1480 1479 1479 1479 1479 1478 1477 1476 1476 1475 1474 1473 1473 1472
1484 1501 1517 1520 1528 1528 1513 1518 1521 1510 1506 1505 1504 1504 1503 1502 1501 1500 1499 1498 1497 1496 1495 1494 1492 1491 1489 1487 1486 1484 1482 1481 1480 1480 1479 1478 1477 1476 1476 1476 1476 1475 1474 1473 1473 1472 1471 1470 1470
1489 1500 1521 1530 1533 1529 1517 1522 1517 1507 1506 1505 1503 1503 1502 1501 1500 1500 1499 1497 1496 1495 1493 1492 1491 1489 1488 1486 1484 1482 1480 1479 1478 1478 1477 1476 1475 1474 1474 1474 1473 1473 1472 1471 1470 1469 1468 1467 1467
1491 1499 1500 1515 1520 1530 1526 1521 1514 1507 1506 1505 1503 1502 1501 1501 1500 1499 1498 1497 1495 1493 1492 1491 1490 1488 1486 1484 1482 1481 1479 1478 1477 1476 1475 1474 1473 1473 1472 1472 1471 1470 1469 1468 1467 1466 1465 1465 1464
1487 1493 1506 1516 1527 1533 1528 1524 1522 1512 1508 1505 1504 1502 1501 1501 1500 1498 1497 1495 1494 1492 1491 1490 1488 1486 1485 1483 1481 1479 1478 1477 1476 1475 1474 1472 1472 1471 1470 1470 1469 1468 1467 1466 1465 1464 1463 1462 1461
1493 1497 1505 1515 1519 1530 1535 1529 1508 1508 1506 1506 1504 1503 1502 1501 1499 1498 1497 1495 1493 1491 1490 1488 1486 1485 1483 1481 1480 1478 1477 1476 1474 1473 1472 1471 1470 1469 1469 1468 1467 1466 1465 1464 1463 1462 1461 1459 1458
1490 1496 1504 1517 1521 1523 1530 1528 1503 1504 1503 1503 1504 1503 1502 1501 1499 1498 1496 1494 1492 1490 1488 1486 1485 1483 1482 1480 1479 1478 1476 1474 1473 1472 1471 1470 1469 1468 1467 1466 1466 1465 1464 1462 1461 1460 1458 1457 1456